2018-083C (43664 NORAD) Tracking and Keplerian Element Data

This shows tracking and keplerian element data for the satellite.

Feedback or suggestion? Click here.




ElementValue
Catalog43664
Name2018-083C
Epoch Orbit331
Epoch Day323.86994506
Epoch Year2018
RAAN344.567
Inclination97.5201
Eccentricity0.0011765
Argument of Perigee186.6344
Mean Anonmoly297.7933
Mean Motion15.16587907
Decay Rate7.09E-06
L11 43664U 18083C 18323.86994506 .00000709 00000-0 39724-4 0 9992
L22 43664 97.5201 344.5670 0011765 186.6344 297.7933 15.16587907 3316

Live tracking and technical data element details for 2018-083C (NORAD 43664). 2018-083C can be tracked NOW for your location showing map with azimuth and elevation plus other details from your city location.

Track the satellite on the map from your city or location and see movement details for azimuth, elevation, latitude, longitude, range, height, and movement on the map or in text.







IsCatalogInMostPopularTable: catalog: 43664, numindb: 7
Update: records affected: 1



GetName: 43664 2018-083C

Hit Count: updated at: Tue, 20 Nov 2018 11:07:31 GMT